Flag for U.S.A. Weather past 2 weeks in Jackson, Mississippi, U.S.A.

Now
60 °F

Clear.


Feels Like: 60 °F
Forecast: 58 / 77 °F
Wind: 9 mph from South

Location: Hawkins Field


UV Index: 7 (High)

Visibility: 10 mi


Pressure: 30.09 "Hg

Humidity: 80%

Dew point: 54 °F

Location of JacksonLocation

Historic Weather in Jackson

°F

Jackson temperature yesterday

Maximum temperature yesterday: 82 °F (at 2:53 PM)
Minimum temperature yesterday: 52 °F (at 5:53 AM)
Average temperature yesterday: 67 °F

Past Weeks' High & Low Weather Summary

 TemperatureHumidityPressure
High83 °F (Apr 13, 2:53 PM)97% (Apr 7, 3:53 AM)30.26 "Hg (Apr 7, 3:53 AM)
Low37 °F (Apr 16, 5:53 AM)25% (Apr 16, 2:53 PM)29.58 "Hg (Apr 7, 3:53 AM)
Average60 °F67%30.04 "Hg
* Reported Apr 6 3:53 AM — Apr 21 3:53 AM, Jackson, Weather by CustomWeather, © 2014

Note: Actual official high and low records may vary slightly from our data, if they occured in-between our weather recording intervals... More about our weather records

Advertising

Historic Weather Conditions — Data for Previous 24 hours

 ConditionsComfort  
Time TempWeatherWind HumidityBarometerVisibility
3:53 AM
Apr 21
60 °FClear.9 mph80%30.09 "Hg10 mi
2:53 AM60 °FClear.6 mph75%30.09 "Hg10 mi
1:53 AM62 °FClear.7 mph67%30.09 "Hg10 mi
12:53 AM65 °FClear.8 mph61%30.09 "Hg10 mi
11:53 PM
Apr 20
63 °FClear.No wind65%30.09 "Hg10 mi
10:53 PM66 °FClear.5 mph59%30.10 "Hg10 mi
9:53 PM66 °FClear.No wind59%30.10 "Hg10 mi
8:53 PM65 °FClear.No wind63%30.08 "Hg10 mi
7:53 PM72 °FSunny.N/A46%30.07 "Hg10 mi
6:53 PM78 °FSunny.No wind33%30.07 "Hg10 mi
5:53 PM80 °FSunny.No wind30%30.08 "Hg10 mi
4:53 PM81 °FSunny.7 mph30%30.09 "Hg10 mi
3:53 PM82 °FSunny.No wind29%30.10 "Hg10 mi
2:53 PM82 °FSunny.7 mph27%30.12 "Hg10 mi
1:53 PM80 °FSunny.3 mph29%30.14 "Hg10 mi
12:53 PM79 °FSunny.No wind35%30.16 "Hg10 mi
11:53 AM75 °FSunny.5 mph47%30.19 "Hg10 mi
10:53 AM71 °FSunny.No wind55%30.21 "Hg10 mi
9:53 AM68 °FSunny.9 mph61%30.21 "Hg10 mi
8:53 AM64 °FSunny.9 mph68%30.20 "Hg10 mi
7:53 AM59 °FSunny.6 mph75%30.18 "Hg10 mi
6:53 AM52 °FFog.No wind89%30.16 "Hg4 mi
5:53 AM52 °FClear.No wind89%30.14 "Hg7 mi
Weather by CustomWeather, © 2014

See weather overview